Courier 1B - Orbit

View from above orbital plane
View from above orbital plane
View from above satellite
View from above satellite

Ground track
Ground track

The orbit data is extracted from the following two-line orbital elements,

1 00058U 60013A   13143.71131518  .00000112  00000-0  38927-4 0  3971
2 00058 028.3269 232.0188 0165090 295.5277 062.8281 13.46260626590970
Epoch (UTC): 23 May 2013 17:04:17
Eccentricity: 0.0165090
inclination: 28.3269°
perigee height: 963 km
apogee height: 1209 km
right ascension of ascending node: 232.0188°
argument of perigee: 295.5277°
revolutions per day: 13.46260626
mean anomaly at epoch: 62.8281°
orbit number at epoch: 59097

The dashed part of the orbit path shows where the satellite is in the earth's shadow,  

Developed and maintained by Chris Peat, Heavens-Above GmbH. Please read the updated FAQ before sending e-mail. Imprint. DLR